Location: Dreilärchen
(47.9312°N, 8.6113°E)
Time: 20:43:15
(UTC+00:00)

Cosmos 839 Rocket - Pass Details

Date: 26 May 2022
Orbit: 968 x 2085 km, 65.9° (Epoch: 03 July)

Event Time Altitude Azimuth Distance (km) Brightness Sun altitude
Rises 00:35:21 0° 321° (NW) 3,689 7.5 -19.1°
Reaches altitude 10° 00:37:48 10° 318° (NW) 2,777 6.7 -18.9°
Maximum altitude 00:44:03 60° 240° (WSW) 1,249 4.3 -18.6°
Enters shadow 00:49:13 20° 168° (SSE) 2,480 5.6 -18.3°
